This is the latest recevied weather packets stored in our database for station/object WX6HNX-2. If no packets are shown the sender has not sent any weather packets the latest 10 day(s).
| Time | Temp. | Humidity | Pressure | Rain* | Wind** | Luminosity | Snow |
|---|---|---|---|---|---|---|---|
| 1778086585 | 17.22° C | 62% | 1019.6 hPa | 0 mm | - | - | - |
| 1778085865 | 16.67° C | 65% | 1019.6 hPa | 0 mm | - | - | - |
| 1778085145 | 16.67° C | 67% | 1019.6 hPa | 0 mm | - | - | - |
| 1778083945 | 15.56° C | 70% | 1019.8 hPa | 0 mm | - | - | - |
| 1778083705 | 15° C | 72% | 1019.8 hPa | 0 mm | - | - | - |
| 1778077174 | 7.22° C | 93% | 1020.1 hPa | 0 mm | - | - | - |
| 1778074829 | 6.67° C | 93% | 1019.9 hPa | 0 mm | - | - | - |
| 1778074589 | 6.67° C | 93% | 1019.9 hPa | 0 mm | - | - | - |
| 1778074109 | 6.67° C | 93% | 1019.7 hPa | 0 mm | - | - | - |
| 1778073869 | 6.67° C | 93% | 1019.6 hPa | 0 mm | - | - | - |
| 1778073149 | 6.67° C | 92% | 1019.5 hPa | 0 mm | - | - | - |
| 1778072429 | 6.67° C | 93% | 1019.3 hPa | 0 mm | - | - | - |
| 1778072189 | 6.67° C | 92% | 1019.2 hPa | 0 mm | - | - | - |
| 1778070989 | 7.22° C | 92% | 1019.1 hPa | 0 mm | - | - | - |
| 1778070749 | 7.22° C | 92% | 1019 hPa | 0 mm | - | - | - |
| 1778070509 | 7.22° C | 92% | 1019.1 hPa | 0 mm | - | - | - |
| 1778070269 | 7.22° C | 92% | 1019 hPa | 0 mm | - | - | - |
| 1778070029 | 7.22° C | 92% | 1019 hPa | 0 mm | - | - | - |
| 1778069549 | 7.22° C | 92% | 1018.9 hPa | 0 mm | - | - | - |
| 1778069069 | 7.78° C | 92% | 1018.7 hPa | 0 mm | - | - | - |
| 1778068829 | 7.78° C | 92% | 1018.8 hPa | 0 mm | - | - | - |
| 1778068349 | 7.78° C | 92% | 1018.7 hPa | 0 mm | - | - | - |
| 1778068109 | 8.33° C | 92% | 1018.7 hPa | 0 mm | - | - | - |
| 1778067869 | 8.33° C | 92% | 1018.6 hPa | 0 mm | - | - | - |
| 1778063641 | 9.44° C | 92% | 1018.4 hPa | 0 mm | - | - | - |
* Rain latest hour (hover to see other rain measurements)
** Current wind speed in m/s (hover to see current wind gust speed)